GW1920 Weather Reports


Display with metric or nautical units.
time (UTC)temp
F
wind
direction
speed
MPH
gust
MPH
rain 1hr
in
rain 24hr
in
rain mn
in
humidity
%
barometer
mb
20260509042743 49 37 0.0 0.0 0.00 0.01 0.01 99 1015.7
20260509042240 49 33 0.0 0.0 0.00 0.01 0.01 99 1015.7
20260509041737 49 33 0.0 0.0 0.00 0.01 0.01 99 1015.6
20260509041234 50 32 0.0 0.0 0.00 0.01 0.01 98 1015.7
20260509040732 50 26 0.0 0.0 0.00 0.01 0.01 98 1015.9
20260509040229 50 26 0.0 0.0 0.00 0.01 0.01 98 1015.6
20260509035725 50 26 0.0 0.0 0.00 0.01 0.01 98 1015.5
20260509035222 50 26 0.0 0.0 0.00 0.01 0.01 97 1015.4
20260509034720 50 26 0.0 0.0 0.00 0.01 0.01 97 1015.5
20260509034217 51 26 0.0 0.0 0.00 0.01 0.01 97 1015.5
20260509033714 51 27 0.0 0.0 0.00 0.01 0.01 96 1015.5
20260509033211 51 25 0.0 0.0 0.00 0.01 0.01 96 1015.4
20260509032708 52 28 0.0 0.0 0.00 0.01 0.01 95 1015.5
20260509032205 52 51 1.0 1.0 0.00 0.01 0.01 94 1015.5
20260509031702 52 29 0.0 0.0 0.00 0.01 0.01 94 1015.5
20260509031200 52 24 0.0 0.0 0.00 0.01 0.01 93 1015.5
20260509030658 53 22 0.0 0.0 0.00 0.01 0.01 93 1015.5
20260509030155 53 24 0.0 0.0 0.00 0.01 0.01 92 1015.4
20260509025651 53 6 0.0 0.0 0.00 0.01 0.01 92 1015.4
20260509025147 53 0 0.0 0.0 0.00 0.01 0.01 91 1015.3
20260509024642 54 353 0.0 0.0 0.00 0.01 0.01 91 1015.5
20260509024138 54 7 0.0 0.0 0.00 0.01 0.01 90 1015.3
20260509023637 54 347 0.0 0.0 0.00 0.01 0.01 90 1015.3
20260509023133 55 335 0.0 0.0 0.00 0.01 0.01 89 1015.5
20260509022629 55 322 1.0 1.0 0.00 0.01 0.01 87 1015.4
20260509022128 55 313 1.0 1.0 0.00 0.01 0.01 87 1015.5
20260509021624 55 335 0.0 1.0 0.00 0.01 0.01 87 1015.6
20260509021121 55 302 1.0 1.0 0.00 0.01 0.01 86 1015.6
20260509020620 55 285 2.0 2.0 0.00 0.01 0.01 86 1015.6
20260509020116 56 336 0.0 0.0 0.00 0.01 0.01 87 1015.4
20260509015615 56 341 0.0 1.0 0.00 0.01 0.01 86 1015.5
20260509015112 56 342 1.0 1.0 0.00 0.01 0.01 86 1015.5
20260509014608 56 316 2.0 2.0 0.00 0.01 0.01 86 1015.4
20260509014105 56 281 0.0 0.0 0.00 0.01 0.01 87 1015.1
20260509013602 55 343 1.0 1.0 0.00 0.01 0.01 87 1015.4
20260509013057 55 323 0.0 0.0 0.00 0.01 0.01 86 1015.5
20260509012555 55 330 0.0 1.0 0.00 0.01 0.01 87 1015.2
20260509012051 55 326 1.0 1.0 0.00 0.01 0.01 87 1015.3
20260509011549 55 345 1.0 1.0 0.00 0.01 0.01 86 1015.3
20260509011046 56 339 1.0 1.0 0.00 0.01 0.01 86 1015.4
20260509010544 56 331 1.0 2.0 0.00 0.01 0.01 86 1015.3
20260509010040 55 340 1.0 1.0 0.00 0.01 0.01 86 1015.5
20260509005538 56 312 3.0 3.0 0.00 0.01 0.01 86 1015.6
20260509005033 56 343 2.0 2.0 0.00 0.01 0.01 86 1015.4
20260509004530 56 311 2.0 2.0 0.00 0.01 0.01 85 1015.7
20260509004027 56 341 1.0 2.0 0.00 0.01 0.01 85 1015.8
20260509003525 56 322 1.0 1.0 0.00 0.01 0.01 85 1015.7
20260509003022 56 335 1.0 1.0 0.00 0.01 0.01 85 1015.7
20260509002519 56 324 2.0 2.0 0.00 0.01 0.01 85 1015.8
20260509002016 56 343 1.0 2.0 0.00 0.01 0.01 85 1015.8
20260509001514 56 332 3.0 3.0 0.00 0.01 0.01 85 1015.7
20260509001010 57 341 1.0 1.0 0.00 0.01 0.01 84 1015.8
20260509000508 57 276 2.0 3.0 0.00 0.01 0.01 83 1015.8
20260509000004 57 335 2.0 2.0 0.00 0.01 0.01 84 1015.7
20260508235502 57 318 2.0 2.0 0.00 0.01 0.01 84 1015.8
20260508234958 57 346 1.0 1.0 0.00 0.01 0.01 85 1015.6
20260508234455 57 342 1.0 2.0 0.00 0.01 0.01 84 1015.8
20260508233952 57 339 0.0 1.0 0.00 0.01 0.01 83 1015.8
20260508233452 58 339 1.0 2.0 0.00 0.01 0.01 83 1015.6
20260508232948 58 337 0.0 0.0 0.00 0.01 0.01 82 1015.9
20260508232445 58 336 0.0 1.0 0.00 0.01 0.01 83 1015.8
20260508231942 58 332 1.0 2.0 0.00 0.01 0.01 83 1016.0
20260508231440 58 343 1.0 1.0 0.00 0.01 0.01 82 1016.0
20260508230936 58 327 2.0 2.0 0.00 0.01 0.01 83 1016.0
20260508230433 58 337 2.0 2.0 0.00 0.01 0.01 82 1016.1
20260508225930 57 338 0.0 0.0 0.00 0.01 0.01 84 1015.9
20260508225427 57 340 1.0 1.0 0.00 0.01 0.01 84 1015.8
20260508224924 56 326 2.0 2.0 0.00 0.01 0.01 85 1016.1
20260508224422 57 339 3.0 3.0 0.00 0.01 0.01 85 1016.1
20260508223919 57 347 1.0 1.0 0.00 0.01 0.01 85 1016.2
20260508223417 57 339 2.0 2.0 0.00 0.01 0.01 84 1016.2
20260508222914 57 339 2.0 2.0 0.00 0.01 0.01 84 1016.1
20260508222411 57 347 1.0 1.0 0.00 0.01 0.01 86 1016.0
20260508221908 57 346 2.0 2.0 0.00 0.01 0.01 84 1016.2
20260508221403 57 348 2.0 2.0 0.00 0.01 0.01 85 1016.2
20260508220900 57 349 1.0 1.0 0.00 0.01 0.01 85 1016.1
20260508220356 57 332 2.0 2.0 0.00 0.01 0.01 85 1016.2
20260508215853 58 352 1.0 1.0 0.00 0.01 0.01 85 1016.2
20260508215349 57 314 3.0 3.0 0.00 0.01 0.01 85 1016.4
20260508214846 57 6 0.0 1.0 0.00 0.01 0.01 86 1016.6
20260508214344 57 338 1.0 2.0 0.00 0.01 0.01 86 1016.3
20260508213839 57 343 0.0 1.0 0.00 0.01 0.01 86 1016.4
20260508213336 57 345 0.0 0.0 0.00 0.01 0.01 87 1016.4
20260508212827 57 344 0.0 0.0 0.00 0.01 0.01 87 1016.5
20260508212324 57 338 3.0 3.0 0.00 0.01 0.01 86 1016.5
20260508211820 57 348 1.0 1.0 0.00 0.01 0.01 87 1016.5
20260508211315 57 345 1.0 2.0 0.00 0.01 0.01 86 1016.6
20260508210813 56 349 0.0 0.0 0.00 0.01 0.01 86 1016.6
20260508210310 56 310 3.0 3.0 0.00 0.01 0.01 86 1016.7
20260508205806 57 323 3.0 3.0 0.00 0.01 0.01 86 1016.7
20260508205306 57 342 1.0 1.0 0.00 0.01 0.01 87 1016.4
20260508204759 57 319 3.0 3.0 0.00 0.01 0.01 87 1016.5
20260508204256 56 349 1.0 2.0 0.00 0.01 0.01 86 1016.5
20260508203752 56 342 1.0 1.0 0.00 0.01 0.01 86 1016.3
20260508203248 56 347 1.0 1.0 0.00 0.01 0.01 87 1016.6
20260508202744 55 336 1.0 1.0 0.00 0.01 0.01 88 1016.7
20260508202242 55 341 3.0 3.0 0.00 0.01 0.01 88 1017.0
20260508201739 55 332 1.0 2.0 0.00 0.01 0.01 88 1016.6
20260508201235 55 336 2.0 2.0 0.00 0.01 0.01 87 1016.7
20260508200732 55 335 1.0 1.0 0.00 0.01 0.01 88 1016.9
20260508200228 55 341 1.0 1.0 0.00 0.01 0.01 88 1016.8
20260508195725 55 339 2.0 2.0 0.00 0.01 0.01 88 1016.9
20260508195221 55 346 1.0 1.0 0.00 0.01 0.01 89 1016.9
20260508194718 55 342 1.0 2.0 0.00 0.01 0.01 88 1016.8
20260508194215 55 341 1.0 2.0 0.00 0.01 0.01 89 1016.9
20260508193712 55 343 1.0 1.0 0.00 0.01 0.01 89 1017.0
20260508193208 55 340 1.0 2.0 0.00 0.01 0.01 89 1016.9
20260508192705 54 351 0.0 1.0 0.00 0.01 0.01 90 1017.0
20260508192202 54 349 1.0 1.0 0.00 0.01 0.01 89 1017.0
20260508191659 54 345 2.0 2.0 0.00 0.01 0.01 89 1016.9
20260508191156 54 349 0.0 0.0 0.00 0.01 0.01 90 1017.0
20260508190653 55 352 1.0 2.0 0.00 0.01 0.01 89 1017.1
20260508190149 54 347 0.0 0.0 0.00 0.01 0.01 89 1017.0
20260508185646 54 348 0.0 0.0 0.00 0.01 0.01 90 1017.3
20260508185144 54 348 0.0 0.0 0.00 0.01 0.01 90 1017.3
20260508184641 54 349 0.0 0.0 0.00 0.01 0.01 90 1017.2
20260508184138 54 345 1.0 2.0 0.00 0.01 0.01 89 1017.2
20260508183635 55 2 0.0 0.0 0.00 0.01 0.01 89 1017.1
20260508183130 54 15 0.0 0.0 0.00 0.01 0.01 89 1017.1
20260508182627 54 1 0.0 0.0 0.00 0.01 0.01 89 1017.2
20260508182124 54 344 0.0 0.0 0.00 0.01 0.01 90 1017.2
20260508181619 54 345 0.0 0.0 0.00 0.01 0.01 92 1017.1
20260508181117 54 345 0.0 0.0 0.00 0.01 0.01 92 1017.0
20260508180613 53 345 0.0 0.0 0.00 0.01 0.01 91 1017.1
20260508180110 53 344 0.0 0.0 0.00 0.01 0.01 91 1017.2
20260508175607 53 344 0.0 0.0 0.00 0.01 0.01 91 1017.0
20260508175104 53 346 1.0 1.0 0.00 0.01 0.01 92 1016.9
20260508174601 53 0 0.0 0.0 0.00 0.01 0.01 94 1017.0
20260508174058 53 344 0.0 0.0 0.00 0.01 0.01 94 1017.1
20260508173555 53 344 0.0 0.0 0.00 0.01 0.01 94 1017.2
20260508173051 53 345 0.0 0.0 0.00 0.01 0.01 94 1017.0
20260508172548 53 345 0.0 0.0 0.00 0.01 0.01 94 1017.0
20260508172044 53 45 1.0 1.0 0.00 0.01 0.01 94 1016.9
20260508171541 53 343 0.0 1.0 0.00 0.01 0.01 95 1016.8
20260508171038 53 358 0.0 0.0 0.00 0.01 0.01 96 1016.7
20260508170535 53 13 0.0 0.0 0.00 0.01 0.01 96 1016.7
20260508170032 53 9 0.0 0.0 0.00 0.01 0.01 95 1016.7
20260508165529 52 22 0.0 0.0 0.00 0.01 0.01 94 1016.8
20260508165026 53 351 0.0 0.0 0.00 0.01 0.01 95 1016.7
20260508164522 53 352 0.0 0.0 0.00 0.01 0.01 94 1016.7
20260508164019 52 354 0.0 0.0 0.00 0.01 0.01 94 1016.7
20260508163517 52 2 0.0 0.0 0.00 0.01 0.01 95 1016.7
20260508163013 52 5 0.0 0.0 0.00 0.01 0.01 96 1016.6
20260508162510 51 2 0.0 0.0 0.00 0.01 0.01 96 1016.6
20260508162008 52 332 0.0 0.0 0.00 0.01 0.01 98 1016.8
20260508161504 52 348 0.0 0.0 0.00 0.01 0.01 99 1016.6
20260508161001 52 354 0.0 0.0 0.00 0.01 0.01 99 1016.6
20260508160500 52 15 0.0 0.0 0.00 0.01 0.01 99 1016.5
20260508155956 52 341 0.0 0.0 0.00 0.01 0.01 99 1016.9
20260508155453 51 340 0.0 0.0 0.00 0.01 0.01 99 1016.8
20260508154950 51 333 0.0 0.0 0.00 0.01 0.01 99 1016.6
20260508154448 51 342 0.0 0.0 0.00 0.01 0.01 99 1016.5
20260508153944 51 342 0.0 0.0 0.00 0.01 0.01 99 1016.4
20260508153441 51 342 0.0 0.0 0.00 0.01 0.01 99 1016.4
20260508152937 51 341 0.0 0.0 0.00 0.01 0.01 99 1016.4
20260508152434 51 345 0.0 0.0 0.00 0.01 0.01 99 1016.4
20260508151930 51 347 0.0 0.0 0.00 0.01 0.01 99 1016.3
20260508151427 51 347 0.0 0.0 0.00 0.01 0.01 99 1016.2
20260508150924 51 348 0.0 0.0 0.00 0.01 0.01 99 1016.0
20260508150420 51 348 0.0 0.0 0.00 0.01 0.01 99 1016.0
20260508145916 51 348 0.0 0.0 0.00 0.01 0.01 99 1016.1
20260508145413 51 348 0.0 0.0 0.00 0.01 0.01 99 1016.1
20260508144910 51 348 0.0 0.0 0.00 0.01 0.01 99 1016.2
20260508144408 51 348 0.0 0.0 0.00 0.01 0.01 99 1016.0
20260508143905 51 348 0.0 0.0 0.00 0.01 0.01 99 1016.0
20260508143402 51 348 0.0 0.0 0.00 0.01 0.01 99 1016.0
20260508142859 51 348 0.0 0.0 0.00 0.01 0.01 99 1016.3
20260508142356 51 348 0.0 0.0 0.00 0.01 0.01 99 1016.3
20260508141852 51 348 0.0 0.0 0.00 0.01 0.01 99 1016.1
20260508141349 51 348 0.0 0.0 0.00 0.01 0.01 99 1016.1
20260508140847 51 348 0.0 0.0 0.00 0.01 0.01 99 1016.0
20260508140343 51 348 0.0 0.0 0.00 0.01 0.01 99 1015.9
20260508135839 51 348 0.0 0.0 0.00 0.01 0.01 99 1015.7
20260508135336 51 347 0.0 0.0 0.00 0.01 0.01 99 1015.6
20260508134832 51 4 0.0 0.0 0.00 0.01 0.01 99 1015.8
20260508134328 51 352 0.0 0.0 0.00 0.01 0.01 99 1015.7
20260508133825 50 352 0.0 0.0 0.00 0.01 0.01 99 1015.6
20260508133324 50 352 0.0 0.0 0.00 0.01 0.01 99 1015.5
20260508132820 50 352 0.0 0.0 0.00 0.01 0.01 99 1015.5
20260508132318 50 352 0.0 0.0 0.00 0.01 0.01 99 1015.4
20260508131814 50 352 0.0 0.0 0.00 0.01 0.01 99 1015.6
20260508131310 50 352 0.0 0.0 0.00 0.01 0.01 99 1015.6
20260508130807 50 351 0.0 0.0 0.00 0.01 0.01 99 1015.7
20260508130304 51 352 0.0 0.0 0.00 0.01 0.01 99 1015.6
20260508125800 50 352 0.0 0.0 0.00 0.01 0.01 99 1015.5
20260508125256 50 352 0.0 0.0 0.00 0.01 0.01 99 1015.5
20260508124754 50 352 0.0 0.0 0.00 0.01 0.01 99 1015.4
20260508124251 50 352 0.0 0.0 0.00 0.01 0.01 99 1015.4
20260508123749 51 352 0.0 0.0 0.00 0.01 0.01 99 1015.8
20260508123247 51 352 0.0 0.0 0.00 0.01 0.01 99 1015.6
20260508122743 50 351 0.0 0.0 0.00 0.01 0.01 99 1015.6
20260508122240 50 350 0.0 0.0 0.00 0.01 0.01 99 1015.5
20260508121737 50 358 0.0 0.0 0.00 0.01 0.01 99 1015.3
20260508121236 50 358 0.0 0.0 0.00 0.01 0.01 99 1015.6
20260508120733 50 358 0.0 0.0 0.00 0.01 0.01 99 1015.7
20260508120231 50 357 0.0 0.0 0.00 0.01 0.01 99 1015.8
20260508115728 50 357 0.0 0.0 0.00 0.01 0.01 99 1016.0
20260508115225 50 357 0.0 0.0 0.05 0.01 0.01 99 1015.9
20260508114722 50 357 0.0 0.0 0.05 0.01 0.01 99 1015.9
20260508114218 51 357 0.0 0.0 0.00 0.00 0.00 99 1016.0
20260508113715 51 0 0.0 0.0 0.00 0.00 0.00 99 1015.9
20260508113214 51 4 0.0 0.0 0.00 0.00 0.00 99 1015.9
20260508112709 51 5 0.0 0.0 0.00 0.00 0.00 99 1015.7
20260508112207 51 352 0.0 0.0 0.00 0.00 0.00 99 1015.8
20260508111703 51 352 0.0 0.0 0.00 0.00 0.00 99 1015.8
20260508111201 51 352 0.0 0.0 0.00 0.00 0.00 99 1015.7
20260508110658 51 351 0.0 0.0 0.00 0.00 0.00 99 1015.8
20260508110155 51 350 0.0 0.0 0.00 0.00 0.00 99 1015.8
20260508105654 51 350 0.0 0.0 0.00 0.00 0.00 99 1015.9
20260508105152 51 349 0.0 0.0 0.00 0.00 0.00 99 1015.6
20260508104649 51 349 0.0 0.0 0.00 0.00 0.00 99 1015.5
20260508104146 51 348 0.0 0.0 0.00 0.00 0.00 99 1015.7
20260508103643 50 348 0.0 0.0 0.00 0.00 0.00 99 1015.6
20260508103140 51 348 0.0 0.0 0.00 0.00 0.00 99 1015.4
20260508102637 51 348 0.0 0.0 0.00 0.00 0.00 99 1015.4
20260508102135 51 348 0.0 0.0 0.00 0.00 0.00 99 1015.4
20260508101632 51 349 0.0 0.0 0.00 0.00 0.00 99 1015.5
20260508101130 51 348 0.0 0.0 0.00 0.00 0.00 99 1015.6
20260508100627 51 347 0.0 0.0 0.00 0.00 0.00 99 1015.5
20260508100125 51 348 0.0 0.0 0.00 0.00 0.00 99 1015.3
20260508095621 51 348 0.0 0.0 0.00 0.00 0.00 99 1015.5
20260508095119 51 348 0.0 0.0 0.00 0.00 0.00 99 1015.3
20260508094615 51 348 0.0 0.0 0.00 0.00 0.00 99 1015.4
20260508094112 51 348 0.0 0.0 0.00 0.00 0.00 99 1015.5
20260508093609 51 348 0.0 0.0 0.00 0.00 0.00 99 1015.4
20260508093107 51 348 0.0 0.0 0.00 0.00 0.00 99 1015.5
20260508092604 51 348 0.0 0.0 0.00 0.00 0.00 99 1015.6
20260508092103 51 348 0.0 0.0 0.00 0.00 0.00 99 1015.5
20260508091559 51 347 0.0 0.0 0.00 0.00 0.00 99 1015.6
20260508091056 51 347 0.0 0.0 0.00 0.00 0.00 99 1015.6
20260508090554 51 347 0.0 0.0 0.00 0.00 0.00 99 1015.5
20260508090050 51 347 0.0 0.0 0.00 0.00 0.00 99 1015.5
20260508085547 51 347 0.0 0.0 0.00 0.00 0.00 99 1015.5
20260508085045 51 347 0.0 0.0 0.00 0.00 0.00 99 1015.5
20260508084541 51 347 0.0 0.0 0.00 0.00 0.00 99 1015.5
20260508084038 51 347 0.0 0.0 0.00 0.00 0.00 99 1015.2
20260508083536 51 347 0.0 0.0 0.00 0.00 0.00 99 1015.4
20260508083032 51 347 0.0 0.0 0.00 0.00 0.00 99 1015.4
20260508082528 51 347 0.0 0.0 0.00 0.00 0.00 99 1015.3
20260508082026 51 347 0.0 0.0 0.00 0.00 0.00 99 1015.0
20260508081523 51 347 0.0 0.0 0.00 0.00 0.00 99 1015.1
20260508081019 51 347 0.0 0.0 0.00 0.00 0.00 99 1015.0
20260508080517 51 347 0.0 0.0 0.00 0.00 0.00 99 1015.0
20260508080014 51 347 0.0 0.0 0.00 0.00 0.00 99 1015.0
20260508075511 51 347 0.0 0.0 0.00 0.00 0.00 99 1014.9
20260508075008 51 347 0.0 0.0 0.00 0.00 0.00 99 1015.0
20260508074506 51 349 0.0 0.0 0.00 0.00 0.00 99 1014.8
20260508074003 51 349 0.0 0.0 0.00 0.00 0.00 99 1014.5
20260508073500 51 349 0.0 0.0 0.00 0.00 0.00 99 1014.7
20260508072957 51 359 0.0 0.0 0.00 0.00 0.00 99 1014.6
20260508072453 51 359 0.0 0.0 0.00 0.00 0.00 99 1014.6
20260508071950 51 359 0.0 0.0 0.00 0.00 0.00 99 1014.5
20260508071448 51 0 0.0 0.0 0.00 0.00 0.00 99 1014.5
20260508070945 51 0 0.0 0.0 0.00 0.00 0.00 99 1014.7
20260508070443 51 351 0.0 0.0 0.00 0.00 0.00 99 1014.6
20260508065941 51 350 0.0 0.0 0.00 0.00 0.00 99 1014.7
20260508065439 51 350 0.0 0.0 0.00 0.00 0.00 99 1014.6
20260508064937 51 348 0.0 0.0 0.00 0.00 0.00 99 1014.5
20260508064434 51 345 0.0 0.0 0.00 0.00 0.00 99 1014.5
20260508063931 51 357 0.0 0.0 0.00 0.00 0.00 99 1014.4
20260508063428 51 1 0.0 0.0 0.00 0.00 0.00 99 1014.5
20260508062926 51 2 0.0 0.0 0.00 0.00 0.00 99 1014.6
20260508062424 52 0 0.0 0.0 0.00 0.00 0.00 99 1014.7
20260508061920 52 2 0.0 0.0 0.00 0.00 0.00 99 1014.6
20260508061418 52 2 0.0 0.0 0.00 0.00 0.00 99 1014.5
20260508060914 52 2 0.0 0.0 0.00 0.00 0.00 99 1014.4
20260508060412 51 341 0.0 0.0 0.00 0.00 0.00 99 1014.8
20260508055907 52 341 0.0 0.0 0.00 0.00 0.00 99 1014.7
20260508055405 52 341 0.0 0.0 0.00 0.00 0.00 99 1015.0
20260508054901 52 341 0.0 0.0 0.00 0.00 0.00 99 1014.8
20260508054358 52 341 0.0 0.0 0.00 0.00 0.00 99 1014.9
20260508053855 51 341 0.0 0.0 0.00 0.00 0.00 99 1014.8
20260508053352 51 341 0.0 0.0 0.00 0.00 0.00 99 1015.0
20260508052850 52 341 0.0 0.0 0.00 0.00 0.00 99 1015.0
20260508052347 52 341 0.0 0.0 0.00 0.00 0.00 99 1014.9
20260508051843 52 341 0.0 0.0 0.00 0.00 0.00 99 1015.1
20260508051338 52 340 0.0 0.0 0.00 0.00 0.00 99 1015.1
20260508050835 52 340 0.0 0.0 0.00 0.00 0.00 98 1015.2
20260508050333 52 340 0.0 0.0 0.00 0.00 0.00 98 1014.9
20260508045828 52 340 0.0 0.0 0.00 0.00 0.00 98 1015.0
20260508045326 52 340 0.0 0.0 0.00 0.00 0.00 98 1014.8
20260508044823 52 340 0.0 0.0 0.00 0.00 0.00 98 1014.9
20260508044319 52 340 0.0 0.0 0.00 0.00 0.00 98 1014.8
20260508043816 52 342 0.0 0.0 0.00 0.00 0.00 98 1014.9
20260508043313 52 341 0.0 0.0 0.00 0.00 0.00 98 1014.7